GFSCGP_prec_cloud_006.txt.gz
Cloud_Cover
10 4 0 40 94 100 5 1 0 70 14 4 90 100 100 100 100 100 100 86 5 5 2 0 2 5 0 0 0 0 0 5 0 0 0 0 5 6 5 21 81 81 95 90
19 0 80 100 89 14 5 5 83 100 91 4 100 100 100 100 100 100 32 7 4 0 0 1 60 0 0 0 0 5 22 26 0 0 0 0 5 94 40 19 56 95 86 94
3 78 100 100 75 5 5 92 100 100 100 100 100 100 100 69 75 6 86 16 0 4 6 54 100 0 0 0 4 28 8 0 0 0 0 0 38 100 99 16 59 80 88 27
4 100 97 24 4 73 84 100 100 100 100 100 100 100 6 26 100 97 42 99 2 4 57 90 63 0 0 1 5 0 0 0 0 0 0 1 100 44 78 5 9 46 100 32
84 100 100 99 100 99 100 100 83 100 99 100 23 62 5 100 100 94 77 4 0 0 4 4 0 0 0 3 0 0 0 0 0 0 0 21 50 33 5 6 38 98 84 100
100 100 27 5 7 1 100 9 100 70 72 100 12 94 8 100 79 6 5 0 0 0 0 0 0 0 0 0 0 0 0 0 0 0 0 8 1 5 12 98 79 98 5 67
100 100 100 100 100 100 100 57 49 100 100 99 77 100 92 100 13 5 4 0 0 0 0 0 0 0 0 0 0 0 0 0 0 0 0 4 3 59 100 98 98 100 6 71
100 100 100 100 100 100 100 100 100 100 100 100 100 100 100 99 5 5 0 1 4 0 0 0 0 0 0 0 0 0 0 0 0 0 1 2 70 100 79 100 99 35 16 17
100 100 100 100 100 100 100 100 100 100 100 100 96 21 5 82 5 2 0 0 4 0 0 0 0 0 0 0 0 0 0 0 0 0 1 4 100 98 78 97 62 15 68 72
100 100 100 100 100 100 99 78 11 94 100 99 5 5 76 58 5 0 0 0 0 0 0 0 0 0 0 0 0 0 0 0 0 0 1 42 100 43 60 5 19 5 8 47
1 97 100 100 36 98 100 99 30 61 74 99 8 5 40 5 5 2 0 0 0 0 0 0 0 0 0 0 0 0 0 0 0 0 2 94 100 100 31 87 89 42 22 68
0 0 14 14 100 85 6 5 5 5 74 4 6 64 5 5 0 0 2 5 1 0 0 0 0 0 0 0 0 0 0 0 0 0 3 94 100 98 91 100 15 5 93 100
20 0 0 0 0 0 1 20 48 5 0 10 47 0 5 5 4 5 5 5 2 0 0 0 0 0 0 0 0 0 0 0 0 0 29 95 100 100 98 100 6 79 79 100
3 2 0 0 0 1 0 2 18 1 3 12 0 2 5 5 4 4 5 5 5 1 0 0 0 0 0 0 0 0 0 0 0 0 14 86 85 100 100 86 68 14 81 100
5 0 1 1 0 0 0 0 0 0 1 1 0 5 5 5 5 5 5 5 5 0 0 0 0 0 0 0 0 0 0 0 0 0 3 71 25 100 15 97 91 5 43 44
5 5 2 5 0 0 0 0 3 0 0 0 1 5 3 7 5 5 5 5 5 1 0 0 0 0 0 0 0 0 0 0 0 0 0 5 5 81 100 100 100 90 4 25
0 5 3 0 1 0 0 0 4 5 0 0 0 2 0 80 9 5 22 7 4 5 0 0 0 0 0 0 0 0 0 0 0 0 0 2 5 35 98 66 92 100 100 43
0 3 0 2 8 0 4 0 5 5 15 0 0 0 0 55 7 18 100 64 5 5 0 0 0 0 0 0 0 0 0 0 0 0 0 1 31 23 5 18 34 88 59 100
2 4 5 14 0 0 5 10 16 5 60 24 3 0 5 29 5 52 44 63 5 5 5 3 0 0 0 0 0 0 0 0 0 0 1 0 5 5 15 1 26 76 64 29
58 4 5 28 0 0 4 53 81 90 25 55 3 0 0 41 92 71 5 100 100 5 5 6 0 0 0 0 0 0 0 0 0 0 0 0 5 4 0 0 4 5 37 70
100 97 0 4 0 2 99 100 100 2 98 99 65 1 0 14 33 3 6 100 78 5 5 5 5 5 0 0 0 0 0 0 0 0 0 0 0 0 4 12 4 1 0 5
100 100 58 62 52 5 97 92 92 27 59 48 42 2 0 1 0 5 5 70 100 18 5 26 5 5 5 1 0 0 0 0 0 0 0 0 0 0 0 0 0 0 0 0
100 100 100 100 64 29 13 100 6 95 26 42 5 3 0 0 0 1 5 5 14 5 5 36 5 5 4 0 0 0 0 0 0 0 0 0 0 0 0 0 0 3 0 0
100 100 100 37 100 48 4 12 10 25 62 0 0 1 0 0 0 0 0 5 5 26 5 6 5 4 4 0 0 0 0 0 0 0 0 0 0 0 0 0 0 0 0 0
100 100 100 100 16 98 8 5 5 86 100 2 5 1 3 1 0 0 0 0 5 5 5 6 5 1 5 1 0 0 0 0 0 0 0 0 0 0 0 0 0 0 0 0
100 100 100 100 68 93 43 29 5 5 3 3 5 33 50 4 0 0 5 4 5 4 5 6 7 5 5 0 0 0 0 0 0 3 0 0 0 0 0 0 0 0 0 0

GFSCGP_prec_cloud_009.txt.gz
Cloud_Cover
20 18 4 100 100 4 5 5 5 99 60 3 3 1 80 87 100 100 49 82 12 1 0 1 0 22 5 5 0 0 0 3 100 61 0 0 0 3 83 100 99 56 99 96
56 0 44 56 5 24 5 5 14 100 96 3 3 5 100 100 100 100 100 27 7 5 5 4 19 67 17 7 0 0 5 14 6 0 0 0 5 10 99 92 63 87 49 77
30 50 91 12 5 5 1 2 100 100 53 20 3 79 6 100 100 100 86 6 5 5 5 3 96 92 5 8 0 0 5 4 0 0 0 0 1 5 69 15 5 5 16 94
100 71 48 5 5 70 5 98 100 100 39 1 1 85 100 100 100 100 8 5 5 5 0 16 49 14 5 0 0 5 4 0 0 0 0 1 0 78 78 29 36 32 65 88
100 100 100 56 94 59 96 100 100 91 2 0 8 100 100 100 100 49 5 5 5 4 0 0 5 0 0 0 0 0 0 0 0 0 0 0 4 87 26 100 6 60 45 59
88 96 52 49 100 100 100 68 22 0 2 90 100 88 100 95 77 29 0 5 5 4 0 0 0 0 0 0 0 0 0 0 0 0 0 0 5 81 100 40 84 48 12 42
17 100 100 97 73 85 74 5 24 84 100 100 8 67 59 5 38 7 5 5 5 5 0 0 0 0 0 0 0 0 0 0 0 0 0 0 5 100 65 31 50 6 21 88
0 3 100 100 100 100 100 100 96 100 100 99 0 67 5 64 100 3 48 5 5 5 1 0 0 0 0 0 0 0 0 0 0 0 0 1 98 100 5 7 19 13 44 15
0 0 29 100 100 100 100 3 89 97 94 3 8 100 100 100 98 5 50 5 6 5 4 0 0 0 0 0 0 0 0 0 0 0 0 43 100 24 5 5 8 14 34 14
0 0 100 100 95 87 16 14 8 5 26 99 100 100 100 100 42 5 6 28 5 35 0 0 0 0 0 0 0 0 0 0 0 0 1 100 100 5 16 5 5 89 12 5
0 0 6 64 17 96 26 10 3 26 100 100 100 100 85 100 27 9 5 5 95 2 0 0 0 0 0 0 0 0 0 0 0 0 19 100 100 5 14 5 72 5 35 6
0 0 0 5 12 100 65 88 97 100 100 100 56 100 100 73 32 5 5 62 57 0 0 0 0 0 0 0 0 0 0 0 0 0 1 100 100 46 7 5 99 5 5 5
0 0 0 0 1 0 1 99 100 100 100 100 100 100 83 62 2 2 14 71 4 4 0 0 0 0 0 0 0 0 0 0 0 0 14 41 100 44 5 5 96 25 4 5
2 0 0 0 2 62 97 100 100 100 35 100 100 30 86 10 2 28 5 27 5 0 0 0 0 0 0 0 0 0 0 0 0 0 10 52 100 42 33 33 27 91 26 85
5 0 0 6 4 2 1 9 61 92 100 36 19 1 0 0 50 5 34 6 5 3 0 0 0 0 0 0 0 0 0 0 0 0 6 61 22 97 7 99 15 5 5 5
50 0 0 0 5 5 4 0 0 1 0 0 0 5 5 4 4 5 5 5 5 1 0 0 0 0 0 0 0 0 0 0 0 0 0 8 100 89 26 68 82 87 5 5
77 4 0 4 5 5 0 0 0 0 0 1 26 90 0 5 5 5 5 5 5 5 0 0 0 0 0 0 0 0 0 0 0 0 0 1 8 81 67 22 5 33 99 11
99 7 5 6 0 0 18 0 4 5 5 5 28 55 12 5 5 10 5 41 46 5 1 0 0 0 0 0 0 0 0 0 0 0 0 4 10 2 13 86 6 8 31 84
92 97 33 40 0 0 45 0 5 5 54 44 17 35 86 5 21 90 5 22 25 89 5 0 0 0 0 0 0 0 0 0 0 0 0 5 98 4 5 5 5 6 28 47
95 64 4 10 4 0 0 0 5 5 5 3 0 38 41 7 99 100 6 5 46 94 5 2 0 0 0 0 0 0 0 0 0 0 0 0 1 1 3 5 3 5 8 62
98 89 3 56 4 0 1 5 14 5 7 1 0 1 5 14 100 81 5 5 38 6 18 5 0 0 0 0 0 0 0 0 0 0 0 0 0 0 5 60 5 0 1 3
100 100 94 91 6 20 2 8 65 6 2 1 30 0 97 98 44 4 11 2 5 5 78 43 5 0 0 0 0 0 0 0 0 0 0 0 0 0 0 0 0 0 0 0
100 100 100 100 100 95 99 59 3 4 1 0 5 4 16 99 21 6 5 5 3 5 43 75 89 3 0 0 0 0 0 0 0 0 0 0 0 0 0 0 2 0 0 0
100 100 100 100 100 100 100 100 27 4 6 0 0 1 2 57 60 91 96 47 1 5 5 92 86 5 1 0 0 0 0 0 0 0 0 0 0 0 0 0 0 0 0 0
100 100 100 100 100 100 100 72 5 6 3 5 0 0 2 5 5 5 94 100 32 1 5 5 82 12 5 4 0 0 0 0 0 0 0 0 0 0 0 0 0 0 0 0
98 100 100 100 100 100 100 98 14 80 62 2 0 0 0 0 0 3 17 100 100 20 5 15 5 5 5 5 0 0 0 0 0 0 0 0 0 0 0 0 0 2 0 0

GFSCGP_prec_cloud_015.txt.gz
Cloud_Cover
2 5 0 1 0 0 0 0 0 0 2 79 100 100 100 100 100 100 100 76 5 0 0 0 0 5 4 0 0 4 5 5 57 67 0 0 0 0 0 0 0 2 42 39
2 0 0 12 0 3 5 0 0 0 1 5 47 1 0 13 66 0 96 3 0 0 5 0 3 2 0 0 2 5 5 5 10 0 0 0 0 0 0 0 0 30 51 63
0 0 5 97 88 10 4 0 5 35 92 94 62 1 0 0 0 0 0 1 1 0 5 5 4 0 0 0 1 1 1 0 4 0 0 0 0 0 0 0 1 17 33 66
0 0 0 2 0 0 0 82 90 6 94 5 100 4 0 0 0 1 4 5 0 5 4 17 1 0 0 0 0 0 0 0 0 0 0 0 0 0 0 0 19 34 42 99
0 0 0 0 17 100 86 100 100 93 18 8 5 2 3 0 3 88 24 0 4 26 100 2 0 0 0 0 0 0 0 0 0 0 0 0 0 0 5 5 88 53 33 70
0 0 0 0 99 100 99 78 5 5 5 2 0 0 95 81 27 6 0 66 30 78 4 3 0 0 0 0 0 0 0 0 0 0 0 0 0 4 4 5 8 62 54 98
0 0 0 0 1 20 11 2 0 0 0 0 0 1 100 64 5 5 93 48 100 6 3 4 0 0 0 0 0 0 0 0 0 0 0 0 0 2 5 5 27 40 56 39
0 0 0 0 0 3 82 99 44 3 2 11 1 24 100 7 6 58 100 87 10 6 19 1 0 0 0 0 0 0 0 0 0 0 0 0 0 5 5 5 6 41 46 26
0 0 0 0 0 0 2 5 20 5 0 5 34 100 100 8 59 100 4 41 9 56 6 0 0 0 0 0 0 0 0 0 0 0 0 0 0 5 5 5 34 53 52 30
3 0 0 0 0 0 0 0 0 0 0 20 100 99 100 34 100 54 28 99 99 6 8 1 0 0 0 0 0 0 0 0 0 0 0 0 0 5 5 5 34 46 38 30
12 0 0 0 0 0 0 0 0 0 8 100 100 100 90 70 65 3 47 100 38 89 5 4 0 0 0 0 0 0 0 0 0 0 0 0 4 50 5 5 16 24 14 13
53 15 0 0 0 0 0 0 0 0 97 100 100 100 10 48 9 94 100 100 76 55 5 0 0 0 0 0 0 0 0 0 0 0 0 0 5 49 0 5 16 23 98 14
94 99 4 0 0 0 0 0 0 0 2 21 100 95 36 100 100 96 40 99 100 59 5 0 0 0 0 0 0 0 0 0 0 0 0 0 4 74 54 6 5 23 27 8
83 6 1 0 0 0 0 0 0 0 0 100 100 75 84 83 6 41 100 100 95 5 2 1 0 0 0 0 0 0 0 0 0 0 0 5 4 31 69 18 21 15 22 30
98 30 5 0 0 0 0 0 0 5 65 100 100 22 100 100 50 100 100 100 78 5 5 0 0 0 0 0 0 0 0 0 0 0 0 0 5 6 21 11 16 18 14 20
92 74 4 0 0 0 0 0 0 0 100 100 100 85 100 100 100 72 100 100 15 5 5 3 0 0 0 0 0 0 0 0 0 0 0 5 0 2 5 5 11 16 28 48
99 94 22 0 3 0 0 0 0 2 100 100 29 100 91 100 87 15 100 98 5 5 5 5 5 0 0 0 0 0 0 0 0 0 0 0 2 5 5 5 5 18 100 42
100 100 11 0 0 0 0 0 0 85 100 100 69 100 98 35 30 99 100 69 40 35 89 26 5 0 0 0 0 0 0 0 0 0 0 0 0 3 3 5 5 6 21 13
100 100 60 5 1 0 0 0 0 98 100 100 74 79 68 66 99 94 100 14 42 74 70 26 5 1 0 0 0 0 0 0 0 0 0 0 0 0 4 5 22 5 5 22
96 100 97 62 5 1 16 0 0 5 98 5 4 70 100 6 97 80 100 99 12 32 50 5 5 5 0 0 0 0 0 0 0 0 0 0 0 0 0 0 2 5 7 26
100 100 100 89 37 25 1 0 3 3 5 0 0 5 7 91 9 60 87 97 49 96 18 5 5 3 0 0 0 0 0 0 0 0 0 0 0 0 0 0 0 4 23 78
99 100 100 95 17 90 16 0 1 1 4 0 0 5 5 5 0 16 16 100 100 99 100 30 5 5 0 0 0 0 0 0 0 0 0 0 0 0 0 0 0 0 13 58
100 100 100 100 100 72 22 27 3 4 11 1 0 26 5 5 4 5 53 100 100 100 100 100 43 5 0 0 0 0 0 0 0 0 0 0 0 0 0 0 0 0 1 8
100 100 100 100 100 100 100 87 48 24 5 5 8 40 5 5 5 5 15 100 100 100 99 86 100 38 3 0 0 0 0 0 0 0 0 0 0 0 0 0 0 0 0 0
100 100 98 100 100 100 100 100 100 85 5 5 3 100 12 5 4 5 5 45 80 100 100 89 53 35 5 4 0 0 0 0 0 0 0 0 0 0 0 0 0 0 0 0
100 100 100 98 100 100 100 100 100 98 17 5 4 91 69 5 5 4 5 5 71 98 100 100 54 22 6 6 5 4 0 0 0 0 0 0 0 0 0 0 0 46 0 0

GFSCGP_prec_cloud_021.txt.gz
Cloud_Cover
0 0 0 0 0 0 0 0 0 0 2 99 4 5 98 8 0 1 0 56 86 5 1 0 5 100 86 12 5 0 5 5 1 29 14 92 33 100 79 5 0 1 0 2
0 0 0 3 1 0 0 0 0 0 5 99 54 43 5 5 5 1 0 5 27 0 0 0 0 0 0 31 5 5 5 0 2 8 7 5 5 1 4 4 10 8 0 9
0 0 24 0 0 0 0 0 0 0 9 96 70 17 0 0 0 0 0 0 6 0 0 0 0 0 11 31 5 9 2 12 0 0 0 0 0 0 0 0 2 0 33 99
0 0 0 0 0 0 0 0 0 0 7 2 7 0 0 0 0 0 3 5 4 0 0 0 0 1 5 48 98 5 6 10 0 0 0 0 0 0 2 0 5 4 19 31
0 0 0 0 0 0 0 0 0 0 0 0 0 0 0 0 0 0 2 0 0 0 0 0 0 5 66 100 76 1 0 0 0 0 0 0 0 0 0 0 5 5 14 99
0 0 0 0 0 0 0 0 0 4 1 0 0 0 0 8 0 0 2 0 0 0 0 0 5 5 77 84 4 0 0 0 0 0 0 0 0 0 0 4 62 7 13 20
0 3 3 0 0 0 0 0 0 1 0 0 0 0 54 1 0 0 0 0 0 0 0 4 5 65 100 16 1 0 0 0 0 0 0 0 0 1 2 5 0 10 15 25
1 0 1 0 0 0 0 0 0 0 0 0 0 0 14 0 2 0 0 0 0 5 5 14 99 100 92 2 0 0 0 0 0 0 0 0 0 20 57 40 19 55 2 2
98 5 0 2 5 0 0 1 2 0 0 0 4 35 6 3 5 2 0 36 26 5 64 100 100 93 2 1 0 0 0 0 0 0 0 0 18 32 78 0 0 87 0 48
45 97 1 31 4 1 3 0 2 0 0 4 6 95 100 57 11 3 5 53 68 30 100 100 73 32 13 1 0 0 0 0 0 0 0 12 73 38 76 90 38 59 72 34
100 96 39 12 77 0 0 5 0 0 0 10 24 74 89 22 5 40 92 100 100 100 100 72 66 63 0 0 0 0 0 0 0 0 6 100 100 74 89 100 98 99 67 99
99 72 76 94 97 4 0 4 2 0 0 0 58 100 0 42 7 98 69 100 100 100 54 99 76 4 0 0 0 0 0 0 0 0 35 99 26 92 66 93 98 23 87 100
47 18 69 100 93 56 46 5 5 0 5 16 68 100 99 30 100 99 100 100 100 100 100 100 53 5 0 0 0 0 0 0 0 1 22 99 32 99 52 100 100 61 20 100
100 12 91 100 66 94 27 62 5 5 5 78 8 43 5 5 100 100 100 100 100 100 100 9 11 0 0 0 0 0 0 0 0 0 28 74 19 92 65 100 99 90 54 91
100 4 91 100 100 100 100 97 83 32 54 88 18 27 38 48 100 100 100 100 100 100 37 100 38 0 0 0 0 0 0 0 0 0 52 72 70 100 100 100 100 100 100 100
83 57 100 100 100 73 100 100 100 100 98 42 76 4 99 75 100 100 100 100 100 100 100 60 0 0 0 0 0 0 0 0 0 0 69 99 59 23 100 100 100 100 82 92
73 73 92 100 100 96 100 100 100 97 99 71 7 2 64 100 99 99 100 95 100 100 49 5 0 0 0 0 0 0 0 0 0 1 82 98 2 12 7 91 100 99 100 99
100 100 100 100 100 100 100 100 100 100 96 73 54 68 98 54 20 100 100 100 100 100 100 13 0 0 0 0 0 0 0 0 0 0 40 40 30 44 93 83 100 99 91 60
100 100 100 100 100 79 100 100 100 100 100 69 10 95 43 42 100 100 100 100 100 100 51 5 0 0 0 0 0 0 0 0 0 1 20 30 42 96 96 68 99 93 94 82
97 100 100 100 98 100 100 76 15 9 100 0 0 0 5 100 95 99 100 100 100 94 17 5 2 0 0 4 0 0 0 0 0 0 4 40 36 92 100 45 50 63 21 35
100 100 100 100 100 100 100 29 95 3 69 26 0 1 5 32 27 100 100 100 100 92 4 5 0 0 1 5 0 0 0 0 0 0 0 20 49 28 83 11 18 15 72 37
100 100 100 100 100 100 100 76 50 77 91 21 12 0 29 5 100 64 100 100 100 10 5 5 5 5 5 5 0 0 0 0 0 0 0 1 0 36 22 18 13 14 50 73
100 100 100 100 100 100 100 100 97 100 100 26 2 21 100 78 100 100 100 100 100 1 5 5 5 5 5 5 2 0 0 0 0 0 0 0 0 0 0 1 5 34 36 61
100 100 100 100 100 100 100 100 100 100 93 55 2 73 100 100 100 100 100 100 11 5 5 7 56 5 32 5 4 0 0 0 0 0 0 0 0 0 0 0 2 5 5 16
100 100 100 100 100 100 100 100 100 100 85 74 24 32 100 100 100 100 100 97 11 5 7 84 98 6 54 5 5 0 0 0 0 0 0 0 0 0 0 0 0 0 1 5
100 100 100 100 100 100 97 100 72 42 47 56 29 29 100 99 100 100 100 20 5 5 100 100 98 99 24 5 5 3 0 0 0 0 0 0 0 0 0 0 0 69 14 0

GFSCGP_prec_cloud_024.txt.gz
Cloud_Cover
0 0 3 0 0 4 32 1 0 0 1 6 38 0 2 1 42 5 99 4 4 1 4 90 55 0 1 4 1 0 0 0 5 15 71 5 100 86 96 50 70 5 0 0
0 0 0 0 0 0 0 0 0 0 0 4 94 29 0 0 4 82 5 4 0 0 0 5 5 0 0 0 0 0 1 39 53 37 5 21 22 5 4 0 0 0 0 0
2 0 4 0 0 0 0 0 0 0 0 1 89 9 0 0 2 2 4 1 0 0 0 0 0 0 0 0 0 0 5 22 53 95 10 2 2 2 0 0 0 0 0 0
0 0 0 0 0 0 0 0 0 0 0 0 2 1 0 0 0 0 0 0 0 0 0 0 0 0 0 0 0 5 9 96 92 75 5 0 0 0 0 0 25 94 95 86
0 0 0 0 0 0 0 5 0 0 0 4 0 0 0 0 0 0 0 0 0 0 0 1 0 0 0 0 4 6 98 96 73 45 1 0 0 0 0 0 0 0 0 0
0 0 13 0 0 0 0 0 0 0 0 37 0 0 0 1 0 0 0 0 5 3 2 2 0 1 0 5 24 100 95 74 72 5 0 0 0 0 0 0 1 4 0 0
17 1 0 0 0 0 0 0 0 0 0 0 8 0 2 3 0 0 0 0 0 6 7 0 0 0 14 99 100 100 88 86 5 0 0 0 0 0 0 2 5 0 1 0
98 31 0 0 0 0 0 0 0 0 0 0 0 0 0 0 0 0 0 0 0 5 1 0 0 5 98 100 100 100 62 5 0 0 0 0 0 8 0 92 0 4 0 3
96 42 7 0 0 9 1 4 0 0 0 0 0 0 0 1 0 0 0 0 0 0 0 5 9 70 100 100 100 5 5 1 0 0 0 0 0 24 16 51 2 0 0 0
4 8 42 0 0 0 30 1 1 0 0 0 0 2 22 59 0 0 0 0 1 3 12 5 100 100 100 95 7 5 0 0 0 0 0 0 68 2 15 97 35 0 2 65
7 74 39 4 4 0 2 16 0 0 0 0 0 1 98 36 3 1 0 0 0 72 100 100 100 100 90 18 5 0 0 0 0 0 0 6 74 0 100 86 85 1 4 100
99 49 13 5 4 0 28 5 4 0 0 1 0 0 100 3 4 0 0 1 5 100 100 100 60 68 100 5 0 0 0 0 0 0 0 77 18 3 100 59 100 1 31 39
89 34 35 100 76 7 13 20 5 2 90 4 5 24 65 1 0 0 53 56 36 100 100 100 100 100 75 4 0 0 0 0 0 16 21 100 3 65 97 49 96 90 16 100
50 65 75 97 100 97 100 79 7 98 0 3 0 99 53 4 1 14 45 14 61 100 100 100 100 75 6 0 0 0 0 0 0 82 11 80 0 62 45 69 27 94 85 87
100 82 94 100 100 100 95 100 98 100 2 23 18 100 99 80 3 5 2 93 100 100 100 100 87 100 4 0 0 0 0 0 0 88 3 80 0 60 21 76 58 24 98 96
100 100 95 100 100 100 100 10 15 100 51 6 66 97 100 88 5 0 5 26 97 100 100 100 100 83 0 0 0 0 0 0 0 0 25 68 97 88 80 31 11 5 40 99
100 93 100 100 100 100 100 0 5 1 98 4 100 100 100 51 100 5 62 13 99 100 100 100 100 12 0 0 0 0 0 0 0 19 92 44 66 26 85 37 27 8 21 98
100 100 100 100 100 100 14 7 42 52 100 33 100 100 100 16 62 87 40 91 100 100 100 100 100 1 0 0 0 0 0 0 0 71 83 68 51 17 100 100 28 100 89 73
100 100 100 100 100 96 100 100 100 92 100 100 100 100 100 69 9 80 100 98 100 100 100 100 61 0 0 0 0 0 0 0 0 48 86 9 95 55 18 90 25 100 100 100
100 100 100 100 100 100 100 92 100 100 100 68 100 100 96 5 32 68 100 100 100 100 100 100 9 0 5 0 0 0 0 0 0 7 61 26 41 49 98 16 19 83 100 78
100 100 100 100 100 100 100 100 92 100 98 100 93 45 38 100 63 100 94 100 100 100 100 100 6 2 4 0 0 0 0 0 0 0 76 42 62 63 86 5 65 100 54 20
100 100 100 100 100 100 100 100 100 100 99 100 36 5 100 22 4 99 100 100 100 100 100 100 5 5 5 0 0 0 0 0 0 0 65 0 0 18 12 0 36 100 70 5
100 100 100 100 100 100 100 100 100 100 100 19 1 48 21 0 41 100 100 100 100 100 100 93 5 5 4 0 0 0 0 0 0 0 34 0 0 80 0 0 2 9 100 66
100 100 100 100 100 100 100 100 100 88 99 60 8 5 0 1 66 100 100 100 100 100 100 60 5 5 5 4 0 0 0 0 0 0 0 0 0 0 0 0 2 1 0 2
100 100 100 100 100 100 100 100 100 100 44 100 83 49 0 4 47 100 100 100 100 100 100 38 5 11 79 5 0 0 0 0 0 0 0 0 0 0 0 0 0 4 25 100
100 100 100 100 100 100 100 100 100 100 100 100 42 55 40 13 91 100 100 100 100 100 100 16 5 5 83 9 0 0 0 0 0 0 0 0 0 0 0 0 0 70 0 20

GFSCGP_prec_cloud_030.txt.gz
Cloud_Cover
0 0 0 92 79 0 0 0 1 5 100 100 100 1 0 20 1 0 0 5 5 4 5 2 0 0 5 4 0 5 2 4 4 5 1 0 0 4 2 0 0 45 16 49
2 0 0 0 0 0 0 0 0 98 100 100 100 2 0 4 18 0 5 68 5 17 9 0 1 5 0 4 5 3 3 4 2 5 5 5 5 5 0 1 74 55 39 3
4 0 0 0 0 0 0 0 0 0 2 68 93 4 0 2 4 60 1 3 11 20 0 0 0 0 2 5 5 3 2 4 3 5 5 41 42 4 3 38 7 9 0 0
5 47 2 0 0 0 0 0 0 0 0 0 0 0 0 73 99 100 98 5 77 5 0 0 0 0 0 1 0 11 2 1 0 5 49 98 93 18 5 3 1 0 0 0
0 80 98 5 0 0 0 0 0 0 0 0 0 0 1 0 4 77 17 0 0 0 0 0 0 0 5 5 0 6 0 0 0 5 61 95 100 12 5 0 0 0 0 1
5 0 51 99 93 4 0 0 0 0 0 0 0 0 0 0 0 0 0 0 0 0 0 0 0 0 2 4 1 0 0 0 5 7 92 97 60 4 0 0 0 0 0 9
84 4 3 100 100 35 1 0 0 0 0 0 0 0 0 0 0 0 0 0 0 0 0 0 0 0 2 3 0 0 3 67 87 99 99 29 4 0 0 0 0 0 0 0
100 71 42 88 100 99 81 6 0 0 0 0 0 0 0 31 0 0 0 0 0 0 0 0 0 0 8 0 0 0 20 98 100 98 8 1 0 0 0 0 0 0 0 0
100 24 99 93 84 100 65 5 27 0 0 0 0 0 0 0 0 0 0 0 0 0 0 0 0 0 0 0 0 68 100 100 36 4 0 0 0 0 0 0 0 0 0 0
18 0 58 100 94 97 100 86 11 5 0 0 0 0 0 0 0 0 0 0 0 0 0 0 0 0 2 5 16 97 100 6 4 0 0 0 0 0 0 2 2 0 0 0
16 5 1 22 17 3 32 94 36 5 2 0 0 0 0 0 0 0 0 0 0 0 0 0 0 5 10 30 89 100 75 6 0 0 0 0 0 0 0 4 4 0 0 0
22 5 68 0 0 81 98 4 28 2 0 0 0 0 29 0 0 0 0 0 0 0 0 0 3 38 100 100 100 100 42 0 0 0 0 0 0 0 5 5 0 0 0 0
13 11 8 1 1 79 100 9 6 2 0 0 0 20 2 5 7 76 0 0 0 0 0 0 9 64 100 100 100 90 3 0 0 0 0 0 0 8 5 3 0 0 0 0
100 77 7 5 78 72 100 98 10 37 0 1 0 93 5 55 28 38 5 0 0 0 0 0 99 69 100 100 86 56 3 0 0 0 0 0 0 1 10 6 0 0 28 100
100 87 100 86 62 83 100 90 80 6 0 0 4 100 5 91 100 3 5 0 0 0 0 72 100 100 100 100 100 28 0 0 0 8 69 42 9 1 8 3 1 4 100 100
45 100 100 100 95 78 100 100 67 44 3 0 8 100 91 64 5 2 5 9 0 1 0 59 100 100 100 100 100 0 0 0 0 100 100 100 88 0 0 0 64 100 100 100
100 100 100 100 98 58 96 100 55 56 5 0 0 100 96 21 4 4 25 92 5 1 16 97 100 100 100 100 18 0 0 0 0 100 100 70 0 0 0 0 5 100 42 100
100 100 89 100 100 92 100 100 32 57 17 2 0 87 2 1 20 100 100 99 72 85 5 100 100 100 100 51 5 0 0 0 0 58 100 15 0 0 0 0 4 35 27 89
92 48 100 100 100 26 8 40 98 98 17 4 57 2 5 87 86 100 100 100 88 11 5 100 98 100 100 100 83 0 0 0 0 100 2 0 0 0 1 5 88 64 95 58
72 32 100 100 100 99 100 98 100 100 66 4 81 20 97 100 100 100 100 100 100 57 7 83 100 95 100 100 31 0 0 0 0 0 0 0 0 5 16 100 7 18 53 71
100 100 100 100 100 100 100 100 100 100 91 75 30 10 100 100 100 100 100 100 100 46 100 99 100 100 100 100 3 0 0 0 0 4 0 0 0 0 52 95 6 28 90 88
100 100 100 100 100 100 100 100 100 100 100 100 90 28 100 100 100 100 100 100 98 89 99 86 99 100 100 100 16 0 0 0 0 0 31 0 0 0 6 5 5 6 24 19
100 100 100 100 100 100 100 100 100 100 100 100 100 100 9 64 26 95 100 100 100 95 98 49 100 100 100 100 3 0 0 0 0 0 11 0 0 0 0 56 8 18 19 17
100 100 100 100 100 100 100 100 100 100 100 96 100 100 58 100 100 100 100 96 100 100 92 100 100 100 100 100 11 5 4 0 0 0 0 0 0 0 0 6 31 15 77 83
100 100 100 100 100 100 100 100 100 100 100 100 100 100 100 100 100 100 100 95 40 100 100 100 100 100 100 41 5 5 5 0 0 0 0 0 0 1 9 23 26 8 67 68
100 100 100 100 100 100 100 100 100 100 100 100 90 100 100 100 100 100 100 44 19 72 100 100 100 100 100 95 44 5 5 4 0 0 0 0 0 0 0 0 0 50 16 94

GFSCGP_prec_cloud_036.txt.gz
Cloud_Cover
0 0 0 0 0 0 5 3 33 98 100 100 100 0 5 0 4 0 0 0 0 5 91 88 100 6 0 0 0 4 5 5 5 24 20 41 39 100 95 100 30 17 63 27
0 0 0 0 0 0 0 1 5 14 87 99 56 0 0 0 0 0 0 0 4 5 27 29 5 0 0 0 0 0 7 5 5 5 12 2 31 100 94 44 41 30 60 45
4 0 0 0 0 0 0 0 0 10 61 28 12 0 0 0 0 0 1 1 94 98 62 5 1 0 0 0 2 55 32 96 5 12 7 30 7 59 51 69 62 90 51 4
96 0 0 0 0 0 0 2 0 0 0 0 0 0 0 0 0 0 1 24 98 8 21 7 2 1 86 54 72 100 97 59 14 10 0 0 8 14 6 15 67 28 4 5
3 0 0 5 3 0 0 0 5 0 0 0 0 0 0 0 0 1 100 55 5 5 5 10 16 100 100 100 86 16 20 34 8 0 0 0 0 0 1 3 5 5 14 5
10 2 55 13 0 0 0 0 56 78 1 0 0 0 0 0 0 0 0 0 0 1 0 0 5 42 77 5 51 72 44 48 1 0 0 0 1 2 0 0 11 27 10 4
50 99 32 5 20 0 43 88 1 28 3 0 0 0 0 4 0 0 0 0 0 0 0 0 0 0 0 76 100 100 34 36 0 0 0 3 3 3 0 0 1 18 29 11
100 95 45 0 2 0 0 61 2 5 5 0 0 0 0 0 0 0 0 0 0 0 0 0 0 0 52 100 100 51 22 18 0 0 2 4 0 0 0 0 5 8 0 0
100 100 100 100 4 2 5 39 0 3 46 37 0 0 0 0 0 0 0 0 0 0 0 0 75 99 100 100 70 17 0 0 0 0 1 1 0 0 0 0 0 0 0 0
100 100 100 100 99 33 15 5 32 20 0 4 0 0 0 0 0 0 0 0 0 0 4 93 100 100 74 42 23 0 0 1 3 5 5 5 0 0 0 0 0 0 0 0
100 100 100 100 100 100 99 80 84 3 0 0 0 0 0 12 13 0 0 0 0 0 66 100 100 100 40 29 0 19 22 4 42 4 2 0 0 0 0 0 0 0 4 0
100 100 100 100 100 71 98 96 98 89 0 0 0 0 0 10 2 0 0 0 2 28 100 100 100 100 25 10 3 68 5 12 5 5 1 0 0 0 0 0 0 0 0 0
100 100 100 100 100 61 41 2 9 5 22 0 0 0 0 6 4 0 0 0 11 100 100 100 100 95 21 0 4 5 38 5 2 5 0 0 0 0 0 2 0 1 4 4
93 100 100 99 99 10 5 5 4 53 17 2 0 0 0 75 38 0 0 0 1 90 100 100 100 90 8 0 8 5 5 3 4 4 0 0 0 0 0 4 2 5 5 0
32 67 77 90 12 5 5 5 5 54 73 44 4 0 90 78 38 0 0 14 2 28 100 100 100 78 8 4 88 9 5 5 5 0 0 0 0 0 0 5 5 5 0 0
100 98 86 46 5 5 44 5 5 5 5 5 38 5 100 71 90 0 0 94 1 7 32 59 50 50 0 100 14 5 5 5 1 0 0 0 0 0 0 0 2 0 43 100
100 78 41 100 16 5 6 4 2 1 0 3 5 2 100 99 95 3 40 4 0 0 0 0 6 8 0 49 5 5 5 2 0 0 0 0 0 0 0 0 0 27 99 100
100 100 100 100 100 100 99 4 10 3 0 0 0 24 100 50 95 8 99 5 1 2 0 1 0 0 0 4 5 0 35 47 0 0 0 0 0 0 0 0 0 98 64 100
100 100 100 100 100 100 100 64 100 88 9 0 5 63 100 100 97 69 62 12 5 5 3 5 0 0 0 0 0 77 69 0 0 0 0 0 0 0 0 5 4 4 5 28
100 100 100 100 100 68 100 100 100 100 22 88 99 100 100 100 26 56 100 93 5 8 55 4 0 0 0 0 0 0 5 4 0 0 0 0 0 3 3 5 5 5 5 1
100 100 100 100 100 100 100 100 100 100 32 90 100 100 100 95 63 54 80 87 11 14 13 2 1 0 0 3 2 4 5 5 0 0 0 0 0 2 33 8 5 7 9 11
100 100 100 100 100 100 100 100 100 100 100 100 100 100 100 90 56 19 70 70 43 94 5 5 5 4 0 1 6 7 5 0 0 0 0 0 0 5 39 5 5 33 68 62
100 100 100 100 100 100 100 100 100 100 100 100 100 90 64 90 77 98 88 29 45 22 96 89 100 5 0 4 15 5 1 0 0 0 0 0 0 2 5 5 4 33 78 96
100 100 100 100 100 100 100 100 100 100 100 99 85 70 99 77 100 100 48 22 100 99 100 100 100 15 1 5 80 5 0 0 0 0 0 0 0 2 0 1 5 21 70 100
100 100 100 100 100 100 100 100 100 100 88 98 98 94 100 66 35 83 100 100 100 93 100 100 84 32 0 14 55 1 0 0 0 0 0 0 0 5 14 43 34 4 11 65
100 100 100 100 100 100 100 100 100 100 100 100 100 100 94 100 88 100 100 100 100 100 100 100 94 5 7 94 67 1 0 0 0 0 0 1 0 0 25 100 87 82 91 100